World > North America > United States > New York

Mohawk, New York Regional Weather

Lat: 43.01N, Lon: 75.01W
Wx Zone: NYZ038
Warning FLW WEATHER ALERT - (More Info. Click Here) Warning
Feedback

Mohawk, NY Regional Weather

Expires:201908191300;;879816
ASUS41 KGYX 191210
RWRGYX
WEATHER ROUNDUP FOR MAINE AND NEW HAMPSHIRE
NATIONAL WEATHER SERVICE GRAY ME
800 AM EDT MON AUG 19 2019


MAZ007-012-024-CTZ003-RIZ002-NYZ038-NYZ072-191300-
SOUTHERN NEW ENGLAND AND NY
  
CITY           SKY/WX    TMP DP  RH WIND       PRES   REMARKS
BOSTON         MOSUNNY   79  68  69 SW10      29.97S                  
WORCESTER      FAIR      71  65  81 SW13      30.01S                  
NANTUCKET      FOG       71  71 100 SW6       30.02S VSB 1/2          
PROVIDENCE     PTSUNNY   75  72  90 S6        30.00S                  
HARTFORD       PTSUNNY   73  66  78 S9        29.98S                  
ALBANY         LGT RAIN  69  65  86 S7        29.99R                  
NEW YORK CITY  FAIR      77  68  73 VRB3      29.98F                  
$$


SKY/WX - Weather  TMP - Temperature  DP - Dew Point  RH - Relative Humidity
WIND - Wind Direction/Speed PRES - Barometric Pressure VSB - Visibility
WCI - Wind Chill Index E13G22 Wind - East Wind 13 mph/Gusts of 22 mph